[[{"header":{"parameterUnit":"m.s-1","parameterCategory":1,"la1":30.2991,"la2":30.254,"lo1":-89.0895,"lo2":-89.0444,"dy":0.0017,"dx":0.0017,"nx":28,"ny":28,"refTime":"2024-04-13T09:00:00:Z","depth":0,"parameterNumber":2,"parameterNumberName":"U-component_of_WINDS"},"data":[0,0,0,0,0,0,0,0,0,0,0,0,0,0,0,0,0,0,0,0,0,0,0,0,0,0,0,0,0,0,0,0,0,0,0,0,0,0,0,0,0,0,0,0,0,0,0,0,0,0,0,0,0,0,0,0,0,0,-0.8115,-0.8114,0,-0.8046,-0.8045,-0.8044,-0.7986,-0.7985,-0.7985,-0.7984,-0.7914,-0.7913,-0.7911,0,0,0,0,0,0,0,0,0,0,0,0,0,-0.8199,-0.8198,-0.8115,-0.8114,-0.8113,-0.8046,-0.8045,-0.8044,-0.7986,-0.7985,-0.7985,-0.7984,-0.7914,-0.7913,-0.7911,0,0,0,0,0,0,0,0,0,0,0,0,0,-0.815,-0.8198,-0.8115,-0.8076,-0.8072,-0.8046,-0.8045,-0.8044,-0.7986,-0.7985,-0.7984,-0.7983,-0.7915,-0.7913,-0.7911,-0.7918,0,0,-0.7905,-0.7904,0,0,0,0,0,0,0,0,-0.8153,-0.8147,-0.8083,-0.8079,-0.8074,-0.8024,-0.8049,-0.8002,-0.7987,-0.8019,-0.7984,-0.7983,-0.7951,-0.7946,-0.7935,-0.7915,-0.7912,-0.7905,-0.7904,-0.7903,-0.7902,0,0,0,0,0,0,0,-0.8156,-0.8149,-0.8088,-0.8082,-0.8077,-0.8063,-0.8055,-0.804,-0.7991,-0.8016,-0.8012,-0.8004,-0.7949,-0.7937,-0.7933,-0.7911,-0.7905,-0.7903,-0.7902,-0.7901,-0.7895,-0.7896,0,0,0,0,0,0,-0.8165,-0.8153,-0.809,-0.8086,-0.8112,-0.8062,-0.8053,-0.8041,-0.7991,-0.7983,-0.8005,-0.8002,-0.7941,-0.7936,-0.7931,-0.7937,-0.7903,-0.7901,-0.79,-0.7894,-0.7895,-0.7896,0,0,0,0,0,0,-0.8167,-0.816,-0.8093,-0.8118,-0.8108,-0.8062,-0.8048,-0.804,-0.8028,-0.7983,-0.7974,-0.8002,-0.794,-0.7933,-0.7922,-0.7933,-0.79,-0.7899,-0.7893,-0.7895,-0.7896,-0.7948,0,0,0,0,0,0,-0.817,-0.8161,-0.8163,-0.8118,-0.8107,-0.8085,-0.8049,-0.8039,-0.8025,-0.802,-0.7978,-0.797,-0.7939,-0.7925,-0.792,-0.793,-0.7897,-0.7892,-0.7894,-0.7895,-0.7945,-0.7951,-0.7957,0,0,0,0,0,-0.8173,-0.818,-0.8163,-0.8156,-0.8108,-0.8085,-0.8079,-0.8043,-0.8026,-0.8028,-0.7999,-0.7971,-0.7933,-0.7925,-0.7918,-0.7928,-0.7891,-0.7893,-0.7895,-0.7943,-0.795,-0.7956,0,0,0,0,0,0,-0.8227,-0.8173,-0.8154,-0.8147,-0.8121,-0.8076,-0.8076,-0.8051,-0.803,-0.8026,-0.7983,-0.7974,-0.7968,-0.7947,-0.7938,-0.7933,-0.7909,-0.791,-0.7947,-0.7953,-0.7959,-0.7964,-0.7896,0,0,0,0,0,-0.8238,-0.8223,-0.8178,-0.8176,-0.8164,-0.8123,-0.8112,-0.8086,-0.8058,-0.8047,-0.8017,-0.7991,-0.7973,-0.7962,-0.7943,-0.7943,-0.7933,-0.7946,-0.7952,-0.7957,-0.7958,-0.7958,-0.7963,-0.7904,-0.7904,-0.7904,0,0,-0.826,-0.8229,-0.8223,-0.8186,-0.8163,-0.815,-0.8114,-0.8101,-0.8091,-0.8045,-0.8032,-0.801,-0.7979,-0.7973,-0.7969,-0.7956,-0.7973,-0.796,-0.7964,-0.7962,-0.796,-0.7966,-0.7971,-0.7905,-0.7905,-0.7905,0,0,-0.8294,-0.8269,-0.8265,-0.8243,-0.821,-0.8182,-0.8182,-0.8141,-0.8124,-0.8111,-0.8077,-0.8065,-0.8035,-0.8014,-0.8,-0.8029,-0.8003,-0.8025,-0.8053,-0.8054,-0.8058,-0.8062,-0.8073,-0.8077,-0.8026,-0.8026,-0.8026,0,-0.8326,-0.8304,-0.8266,-0.8256,-0.8241,-0.82,-0.8196,-0.8177,-0.8139,-0.813,-0.8116,-0.8079,-0.8054,-0.8044,-0.8052,-0.8041,-0.804,-0.8028,-0.8061,-0.8064,-0.8067,-0.8077,-0.8081,-0.8029,-0.8029,-0.8029,-0.8028,0,-0.8345,-0.8331,-0.8332,-0.8297,-0.8283,-0.8276,-0.8238,-0.8228,-0.8205,-0.818,-0.8169,-0.8139,-0.8114,-0.811,-0.8086,-0.8097,-0.809,-0.8069,-0.8042,-0.8076,-0.8085,-0.8088,-0.8033,-0.8032,-0.8031,-0.8031,0,0,-0.8409,-0.8354,-0.8355,-0.834,-0.8301,-0.8289,-0.8282,-0.8257,-0.825,-0.8226,-0.8219,-0.8196,-0.8177,-0.8161,-0.8136,-0.8136,-0.8162,-0.8115,-0.8114,-0.8125,-0.8173,-0.8189,-0.8194,-0.8146,-0.8146,-0.8147,-0.8176,0,-0.8436,-0.8419,-0.8386,-0.838,-0.8367,-0.8329,-0.8322,-0.8298,-0.8276,-0.8262,-0.8237,-0.8222,-0.8197,-0.8188,-0.8186,-0.816,-0.8171,-0.8157,-0.8139,-0.8139,-0.8147,-0.8198,-0.8214,-0.8243,-0.8179,-0.818,-0.818,0,-0.8465,-0.8444,-0.8437,-0.84,-0.8394,-0.8388,-0.8364,-0.8352,-0.8325,-0.8308,-0.8292,-0.8264,-0.8256,-0.8233,-0.8221,-0.8212,-0.8203,-0.8189,-0.819,-0.8186,-0.8161,-0.8196,-0.8251,-0.8256,-0.8185,-0.8184,-0.8184,0,-0.8513,-0.8483,-0.8474,-0.8462,-0.8419,-0.8417,-0.8399,-0.8371,-0.8359,-0.8339,-0.8331,-0.831,-0.8299,-0.8284,-0.8252,-0.8238,-0.8244,-0.8218,-0.823,-0.8231,-0.8232,-0.8232,-0.8287,-0.8228,-0.8228,-0.8228,-0.8227,0,-0.8546,-0.8544,-0.8495,-0.849,-0.8487,-0.845,-0.8447,-0.8426,-0.8402,-0.8393,-0.8359,-0.8352,-0.8311,-0.8299,-0.8274,-0.8269,-0.8264,-0.8251,-0.8244,-0.8253,-0.8255,-0.8246,-0.8243,-0.8229,-0.8228,-0.8228,-0.8228,0,-0.8598,-0.8566,-0.8554,-0.8515,-0.8506,-0.8505,-0.8472,-0.8466,-0.8442,-0.8432,-0.8427,-0.839,-0.8375,-0.8342,-0.8318,-0.8301,-0.8302,-0.829,-0.8311,-0.8306,-0.8321,-0.832,-0.8371,-0.8376,-0.8314,-0.8315,-0.8315,0,-0.8621,-0.8618,-0.8579,-0.8571,-0.8555,-0.8541,-0.853,-0.8494,-0.8483,-0.8454,-0.8452,-0.8434,-0.8418,-0.8395,-0.8366,-0.8348,-0.8336,-0.8355,-0.8333,-0.8343,-0.8336,-0.8337,-0.8337,-0.836,-0.8361,-0.8361,-0.8362,0,-0.8667,-0.8651,-0.8635,-0.8614,-0.8601,-0.8583,-0.8563,-0.8558,-0.8518,-0.8508,-0.8492,-0.848,-0.8455,-0.8438,-0.8416,-0.8399,-0.8374,-0.837,-0.8371,-0.838,-0.8393,-0.8387,-0.8324,-0.8368,-0.8367,-0.8367,-0.8367,-0.8366,-0.8705,-0.8701,-0.8673,-0.8657,-0.8638,-0.8621,-0.8614,-0.859,-0.8576,-0.8553,-0.8534,-0.852,-0.8495,-0.8463,-0.8448,-0.8437,-0.8425,-0.8427,-0.8428,-0.8429,-0.8433,-0.8395,-0.8433,-0.8433,-0.8432,-0.8432,-0.8432,0,-0.8748,-0.8729,-0.8715,-0.8688,-0.8676,-0.8654,-0.8632,-0.8623,-0.8611,-0.859,-0.8575,-0.8558,-0.8542,-0.8513,-0.8494,-0.8492,-0.848,-0.8488,-0.8488,-0.8484,-0.8445,-0.8445,-0.8498,-0.8498,-0.8498,-0.8498,-0.8498,-0.8498,-0.8769,-0.8762,-0.8744,-0.8728,-0.8708,-0.8694,-0.8684,-0.8668,-0.8651,-0.8633,-0.862,-0.8601,-0.8577,-0.8557,-0.8542,-0.8534,-0.8529,-0.8541,-0.853,-0.8493,-0.8487,-0.8481,-0.8481,-0.854,-0.854,-0.857,-0.857,-0.857]},{"header":{"parameterUnit":"m.s-1","parameterCategory":1,"la1":30.2991,"la2":30.254,"lo1":-89.0895,"lo2":-89.0444,"dy":0.0017,"dx":0.0017,"nx":28,"ny":28,"refTime":"2024-04-13T09:00:00:Z","depth":0,"parameterNumber":3,"parameterNumberName":"V-component_of_WINDS"},"data":[0,0,0,0,0,0,0,0,0,0,0,0,0,0,0,0,0,0,0,0,0,0,0,0,0,0,0,0,0,0,0,0,0,0,0,0,0,0,0,0,0,0,0,0,0,0,0,0,0,0,0,0,0,0,0,0,0,0,3.4786,3.4786,0,3.4815,3.4816,3.4816,3.4864,3.4865,3.4866,3.4867,3.4893,3.4893,3.4893,0,0,0,0,0,0,0,0,0,0,0,0,0,3.4769,3.4769,3.4786,3.4787,3.4787,3.4815,3.4816,3.4816,3.4864,3.4865,3.4866,3.4867,3.4893,3.4893,3.4893,0,0,0,0,0,0,0,0,0,0,0,0,0,3.4785,3.4769,3.4786,3.4814,3.4817,3.4815,3.4816,3.4816,3.4864,3.4865,3.4867,3.4868,3.4893,3.4893,3.4893,3.4865,0,0,3.4892,3.4892,0,0,0,0,0,0,0,0,3.4784,3.4786,3.481,3.4812,3.4816,3.4838,3.4819,3.4832,3.4864,3.4846,3.4867,3.4868,3.4873,3.4875,3.4877,3.4866,3.4867,3.4892,3.4892,3.4892,3.4892,0,0,0,0,0,0,0,3.4783,3.4785,3.4798,3.481,3.4814,3.4825,3.4828,3.4822,3.4852,3.4848,3.4851,3.4854,3.4875,3.4877,3.4878,3.4867,3.4892,3.4892,3.4892,3.4892,3.4835,3.4834,0,0,0,0,0,0,3.4778,3.4783,3.4797,3.4799,3.4803,3.4824,3.4828,3.4829,3.4852,3.4857,3.4853,3.4856,3.4877,3.4878,3.4879,3.4848,3.4892,3.4892,3.4892,3.4836,3.4835,3.4833,0,0,0,0,0,0,3.4777,3.4779,3.4796,3.4792,3.4795,3.4823,3.4823,3.4829,3.4831,3.4856,3.4861,3.485,3.4878,3.488,3.4868,3.485,3.4892,3.4891,3.4838,3.4836,3.4834,3.4786,0,0,0,0,0,0,3.4777,3.4778,3.4768,3.4791,3.4795,3.4785,3.4822,3.4829,3.4831,3.4836,3.4855,3.4859,3.4879,3.4868,3.4868,3.485,3.4891,3.484,3.4837,3.4835,3.4789,3.4783,3.4777,0,0,0,0,0,3.4776,3.4753,3.4768,3.4769,3.4783,3.4784,3.4786,3.4811,3.483,3.482,3.4836,3.4858,3.4852,3.4867,3.4867,3.4849,3.4841,3.4838,3.4835,3.4792,3.4784,3.4777,0,0,0,0,0,0,3.4725,3.4756,3.4773,3.4757,3.4767,3.4792,3.478,3.4801,3.4805,3.4809,3.4839,3.4843,3.4828,3.4837,3.4853,3.4823,3.485,3.4847,3.4818,3.481,3.4804,3.4802,3.4891,0,0,0,0,0,3.4712,3.4711,3.4738,3.4721,3.4725,3.4752,3.4753,3.4771,3.4783,3.4787,3.4802,3.4812,3.4812,3.4812,3.4813,3.4791,3.4796,3.4779,3.4772,3.4767,3.4764,3.4753,3.4746,3.4823,3.4823,3.4823,0,0,3.4685,3.4702,3.4699,3.4711,3.4721,3.4719,3.4755,3.475,3.4748,3.4786,3.4777,3.4788,3.4801,3.4784,3.4778,3.4792,3.4744,3.4763,3.4759,3.4758,3.475,3.4742,3.4736,3.4821,3.4821,3.4822,0,0,3.4635,3.4647,3.4635,3.4645,3.4661,3.4679,3.4676,3.4698,3.4707,3.4699,3.4727,3.4725,3.4725,3.4733,3.4737,3.469,3.4711,3.469,3.4657,3.4646,3.464,3.4635,3.4619,3.4613,3.4687,3.4686,3.4686,0,3.4599,3.4597,3.4626,3.462,3.4624,3.466,3.4647,3.4655,3.467,3.4672,3.4688,3.4689,3.47,3.4686,3.4675,3.4677,3.4674,3.4688,3.4639,3.4634,3.463,3.4615,3.4608,3.4684,3.4684,3.4684,3.4685,0,3.4552,3.455,3.4538,3.4554,3.4557,3.4547,3.4574,3.4573,3.4592,3.4608,3.4599,3.4613,3.4619,3.4617,3.4634,3.4606,3.4614,3.4634,3.4662,3.4619,3.4606,3.46,3.468,3.4681,3.4682,3.4682,0,0,3.447,3.4502,3.4498,3.4505,3.4526,3.4525,3.4517,3.4524,3.4523,3.4532,3.4526,3.4526,3.4545,3.4549,3.4568,3.4558,3.4521,3.458,3.4581,3.4569,3.4491,3.4476,3.4469,3.4536,3.4535,3.4534,3.449,0,3.4424,3.4414,3.444,3.4423,3.4422,3.4456,3.4449,3.446,3.4475,3.4476,3.4491,3.4491,3.4516,3.4519,3.4512,3.4528,3.4506,3.4531,3.453,3.4529,3.4526,3.4462,3.4446,3.4404,3.4485,3.4484,3.4484,0,3.4369,3.4377,3.436,3.4383,3.4383,3.4377,3.4386,3.4386,3.4399,3.4411,3.4417,3.4439,3.4432,3.4459,3.445,3.4466,3.4467,3.4475,3.4474,3.4475,3.4504,3.4461,3.4391,3.4385,3.4475,3.4476,3.4477,0,3.4311,3.4318,3.4309,3.4314,3.434,3.4335,3.4345,3.4361,3.4363,3.4371,3.4373,3.4378,3.4382,3.4385,3.4408,3.4426,3.4396,3.4425,3.4405,3.4405,3.4398,3.4398,3.4327,3.4398,3.4398,3.4398,3.4398,0,3.4257,3.4245,3.4284,3.4278,3.4266,3.4296,3.4283,3.4296,3.431,3.4307,3.4336,3.4333,3.4364,3.4363,3.4381,3.4371,3.4372,3.4381,3.4385,3.4378,3.4377,3.4379,3.4383,3.4396,3.4397,3.4397,3.4397,0,3.419,3.4215,3.4208,3.4234,3.424,3.423,3.4252,3.4248,3.4265,3.4261,3.4262,3.4288,3.4289,3.4313,3.4318,3.433,3.4313,3.4323,3.4309,3.4312,3.4292,3.4293,3.422,3.4212,3.4287,3.4286,3.4286,0,3.4154,3.4147,3.4172,3.4173,3.4183,3.4184,3.4187,3.4216,3.4218,3.4234,3.4227,3.4231,3.4236,3.4236,3.4255,3.426,3.4271,3.4245,3.4271,3.4265,3.4271,3.4271,3.427,3.4239,3.4238,3.4237,3.4236,0,3.4088,3.4101,3.4106,3.4115,3.4119,3.4127,3.4137,3.4135,3.4167,3.4168,3.4171,3.4174,3.4181,3.4185,3.4193,3.4203,3.4225,3.4228,3.4224,3.4216,3.4209,3.4213,3.4294,3.4229,3.423,3.4231,3.4231,3.4231,3.4036,3.4031,3.4049,3.4053,3.4064,3.4073,3.407,3.4088,3.4091,3.41,3.4116,3.4116,3.413,3.4144,3.4152,3.4152,3.4165,3.4159,3.4157,3.4155,3.4151,3.4209,3.4153,3.4153,3.4154,3.4154,3.4154,0,3.3972,3.3985,3.3989,3.4003,3.4006,3.4028,3.404,3.4041,3.4041,3.4053,3.4058,3.4061,3.4065,3.4084,3.409,3.4086,3.4096,3.4087,3.4087,3.4089,3.4139,3.4142,3.4078,3.4078,3.4078,3.4078,3.4078,3.4078,3.3939,3.3932,3.3947,3.3946,3.3959,3.3961,3.3966,3.3974,3.3984,3.3986,3.399,3.4003,3.4018,3.4026,3.403,3.4036,3.4036,3.4023,3.4032,3.4078,3.4086,3.4093,3.4096,3.4023,3.4023,3.3983,3.3982,3.3982]}]]